Regional Weather Roundup
Issued by NWS

Home | Current Version | Previous Version | Graphics & Text | Print | Product List | Glossary On
Versions: 1 2 3 4 5 6 7 8 9 10 11 12 13 14 15 16 17 18 19 20 21 22 23 24 25 26 27 28 29 30 31 32 33 34 35 36 37 38 39 40 41 42 43 44 45 46 47 48 49 50
195
ASUS45 KBOI 052110
RWRID

IDAHO REGIONAL WEATHER ROUNDUP
NATIONAL WEATHER SERVICE BOISE ID
200 PM MST FRI FEB 05 2016

NOTE: "FAIR" INDICATES FEW OR NO CLOUDS BELOW 12000 FEET
WITH NO SIGNIFICANT WEATHER AND/OR OBSTRUCTIONS TO VISIBILITY

IDZ012-014-052200-
SOUTHWEST IDAHO


CITY           SKY/WX    TMP DP  RH WIND       PRES   REMARKS
BOISE          SUNNY     42  36  79 S10       30.49F
CALDWELL       CLOUDY    38  34  85 W5        30.52F FOG     WCI  34
MOUNTAIN HOME  SUNNY     40  40 100 E13       30.50F WCI  33
$$

IDZ016-017-052200-
SOUTHCENTRAL IDAHO


CITY           SKY/WX    TMP DP  RH WIND       PRES   REMARKS
BURLEY         PTSUNNY   35  28  75 VRB7      30.49F WCI  29
JEROME         PTSUNNY   28  24  85 NE16      30.50F FOG     WCI  16
TWIN FALLS     SUNNY     36  29  75 N7        30.49F WCI  30
$$

IDZ019>023-052200-
SOUTHEAST IDAHO


CITY           SKY/WX    TMP DP  RH WIND       PRES   REMARKS
IDAHO FALLS    CLOUDY    19  15  84 N8        30.53F FOG     WCI   9
POCATELLO      CLOUDY    24  20  84 NE5       30.52F WCI  18
REXBURG        CLOUDY    21  18  88 CALM      30.51F FOG
$$

IDZ006-010-011-018-031-032-052200-
CENTRAL IDAHO MOUNTAINS


CITY           SKY/WX    TMP DP  RH WIND       PRES   REMARKS
MCCALL         PTSUNNY   30  26  85 CALM      30.43F
HAILEY         MOSUNNY   25  18  74 SE6       30.47F WCI  18
STANLEY          N/A     32  18  56 N3        30.41F
SALMON         CLOUDY    25  14  63 CALM      30.45F
CHALLIS        SUNNY     27  16  63 CALM      30.43F
$$

IDZ002-004-006-007-026-052200-
NORTHERN IDAHO


CITY           SKY/WX    TMP DP  RH WIND       PRES   REMARKS
LEWISTON       MOSUNNY   52  33  48 SE23G29   30.32F
LOWELL           N/A     47  37  68 N6        30.41F
COEUR D`ALENE  PTSUNNY   45  36  70 S9        30.28F
MULLAN PASS    CLOUDY    32  27  81 VRB6      30.26S HAZE    WCI  26
$$




USA.gov is the U.S. government's official web portal to all federal, state and local government web resources and services.